Find OneWeb SL0228

NORAD ID: 48780 Int'l Des: 2021-045 Owner: ONEWEBN Country: UK Constellation: oneweb operational
又名: ONEWEB-0228 spacetrack, celestrak
LEOCIRCULARPOLARONEWEB_TYPE

当前视图

正在加载3D地球...

About OneWeb SL0228

OneWeb SL0228 (NORAD 48780) is a oneweb constellation satellite launched May 28, 2021 by ONEWEBN of UK. It operates in LEO, CIRCULAR, POLAR, ONEWEB_TYPE orbit with a mass of 148.00 kg.

即将过境

Passes for default location (London). Set your location on the main map for personalized predictions.

高度历史

Loading altitude history...

两行轨道根数

1 48780U 21045P 26246.43421460 .00000136 00000-0 32634-3 0 9994
2 48780 87.8971 243.5902 0002059 86.6196 273.5170 13.15549701254615
Epoch: Sep 3, 2026 • Age: 22 hours

当前状态

高度 1206.1 km
远地点 / 近地点 N/A
速度 7.26 km/s
星下点 38.81°N, 133.79°E
发射日期 May 28, 2021
运行时间 5.2 years
类型 internet

技术详情

分类 Payload
质量 148.00 kg
干质量 140.00 kg
总质量 148.00 kg
长度 1.30 m
直径 1.00 m
跨度 5.00 m
形状 Trapezoid+2 pan
制造商 ONEWUS
平台类型 ARROW
阶段状态 In Orbit
所有者/国家 ONEWEBN/UK

Most Searched